Theta_e
313 313 313 313 313 313 313 313 313 313 313 313 313 313 313 313 314 305 299 305 312 321 323 313 311 309 308 300 306 308 296 294 295 295 297 303 300 307 309 307 311 314 334 340 346
312 312 313 313 313 313 313 313 313 313 313 314 313 313 313 313 305 301 310 320 326 326 311 308 306 308 302 298 301 303 297 297 300 301 300 302 302 304 304 305 306 320 335 339 345
312 312 312 312 313 313 312 312 313 313 313 313 313 312 313 311 298 298 329 329 330 330 319 307 307 306 299 299 298 300 299 302 303 304 304 303 304 306 303 299 304 305 329 333 335
312 312 312 312 312 312 312 312 313 313 313 312 312 313 313 306 286 311 323 328 325 319 313 307 302 297 295 295 300 294 303 305 305 306 305 303 306 305 303 303 308 308 319 331 330
311 312 312 312 312 312 311 311 312 312 312 312 312 313 308 298 297 308 320 319 314 312 307 304 300 297 295 297 299 297 298 303 306 307 306 306 304 303 303 307 309 309 309 326 329
311 311 311 311 312 313 312 311 310 312 312 312 312 313 304 292 306 309 309 309 307 305 305 306 302 302 298 298 297 299 302 301 303 304 306 304 303 302 305 308 308 309 307 308 324
311 312 311 312 312 313 312 312 312 312 313 313 314 309 300 296 308 309 308 306 307 306 301 303 309 305 303 299 303 301 297 302 302 303 304 305 300 301 305 308 305 306 307 308 315
311 311 311 312 312 312 312 312 312 313 313 314 315 307 298 310 310 308 308 306 308 307 305 305 304 299 298 304 303 298 298 292 301 303 305 301 295 302 304 303 303 306 307 307 308
311 310 311 311 312 312 312 312 313 314 315 314 307 303 297 314 307 309 308 304 305 306 304 306 301 297 296 294 293 296 290 293 296 304 303 302 296 302 304 303 302 303 305 306 306
311 310 310 311 311 311 311 311 313 315 313 313 309 300 303 302 307 309 308 306 303 302 301 300 295 291 293 291 286 290 291 294 294 300 302 300 299 301 303 303 302 303 304 304 305
310 310 310 310 310 310 308 304 300 299 301 296 298 300 302 306 308 304 307 305 303 297 289 296 289 285 289 293 294 297 294 293 297 301 300 299 299 300 302 301 301 301 302 303 304
309 310 310 310 310 310 306 300 302 300 293 302 302 302 304 305 299 302 307 299 297 290 291 288 286 291 294 294 294 295 294 293 298 302 300 297 297 300 302 302 302 303 303 303 303
309 309 310 310 309 307 305 305 308 305 292 298 303 303 301 304 299 299 304 301 295 291 289 286 290 295 292 291 291 292 293 294 295 299 301 298 295 298 302 303 303 305 305 305 305
309 309 309 309 305 304 303 307 308 306 286 294 298 301 303 303 297 306 306 301 295 290 291 289 294 293 291 289 292 289 297 298 297 295 289 299 288 295 299 300 302 303 304 305 306
309 309 309 308 301 301 306 306 309 302 279 296 297 307 304 299 301 301 308 300 292 293 292 289 292 291 289 290 293 290 298 298 297 295 294 295 290 294 298 297 300 302 304 306 305
308 309 308 307 304 307 309 307 306 289 280 292 297 295 296 299 299 302 301 302 299 293 294 292 297 295 293 296 295 297 294 296 296 294 287 294 290 289 295 298 300 302 304 306 306
308 308 306 308 301 308 309 304 287 281 294 290 290 294 295 293 294 296 295 292 287 284 285 291 291 294 297 291 296 292 289 285 284 285 285 296 292 290 299 302 302 302 303 305 306
307 306 308 309 309 309 306 295 280 289 289 294 293 294 290 293 292 292 292 290 294 291 286 286 283 290 295 292 290 289 288 285 280 282 286 295 291 293 301 305 305 305 304 305 305
306 307 309 310 311 309 300 284 284 289 292 291 291 288 289 292 291 290 290 287 292 291 285 285 285 294 295 296 295 290 286 293 287 290 286 290 294 305 305 304 303 304 304 304 303
302 304 307 309 311 305 295 289 290 295 295 294 286 290 287 288 287 288 288 294 291 295 296 290 284 293 294 297 296 293 295 286 289 282 282 289 291 292 299 301 302 302 301 308 321
303 301 305 310 309 298 285 289 293 297 297 291 290 289 289 288 288 288 288 293 294 293 295 294 290 288 292 291 290 290 290 292 290 289 283 284 288 302 304 301 304 310 316 320 322
301 294 305 309 294 294 289 294 296 295 297 295 295 292 290 290 288 288 288 292 298 296 290 294 292 285 287 296 297 294 292 293 287 285 292 291 289 307 309 310 312 312 318 321 321
297 299 306 305 289 290 295 296 297 294 294 294 292 295 294 290 286 290 291 297 299 296 290 294 290 281 283 292 296 291 294 296 294 293 290 287 291 309 309 310 313 315 317 319 320
299 290 297 298 298 293 292 293 291 298 296 296 295 296 292 290 293 290 290 296 299 298 300 297 291 288 281 286 293 290 294 295 294 290 292 292 298 303 303 305 309 312 315 316 317
297 291 294 287 290 291 295 293 290 290 296 297 293 293 291 287 289 290 292 294 297 299 296 296 288 291 292 295 295 293 293 295 293 295 291 296 298 302 304 306 308 311 312 312 311
293 291 294 291 293 293 293 291 290 292 293 292 291 293 293 289 291 287 291 292 292 296 293 296 289 292 291 295 295 292 293 295 295 297 300 300 299 307 308 309 310 310 309 308 307
300 301 295 292 292 291 291 291 292 294 295 296 294 293 292 293 296 296 297 297 297 294 293 290 292 291 286 293 293 288 294 294 297 302 301 296 301 306 304 306 306 307 307 305 305
Wind_Speed
19 19 19 20 20 19 20 20 20 19 19 20 20 20 21 21 23 19 14 15 11 20 18 12 13 11 10 7 9 7 8 17 25 19 12 18 7 10 7 6 4 6 14 18 18
20 20 20 20 21 21 21 21 21 21 20 20 20 20 20 21 19 21 19 15 14 20 14 11 12 12 8 11 6 11 13 27 9 12 15 17 9 11 3 2 3 12 15 14 18
20 20 20 21 22 22 23 23 23 23 22 20 19 18 18 16 11 9 10 10 1 11 17 17 14 13 15 10 10 7 27 14 15 15 19 20 20 9 5 5 7 9 17 13 11
21 21 22 23 23 24 24 25 24 23 22 20 18 16 15 8 8 5 3 18 28 9 7 13 14 15 5 12 18 17 22 21 18 15 23 21 16 14 3 10 11 9 15 17 13
22 22 23 24 25 25 25 26 26 24 22 20 18 14 7 8 15 17 27 25 20 8 7 8 13 12 21 7 16 24 23 17 18 21 23 17 18 13 10 5 10 10 8 14 14
22 23 24 25 26 25 25 26 26 23 23 19 15 10 5 18 11 16 15 15 16 9 11 10 10 11 12 15 20 5 18 20 19 21 23 20 16 6 11 4 3 8 3 8 14
22 23 25 25 26 27 28 27 26 24 23 19 12 7 9 25 6 14 19 14 12 14 15 15 16 17 10 14 25 24 23 16 24 24 24 14 18 23 9 1 6 5 6 7 8
23 24 25 27 27 28 29 30 29 28 21 17 12 6 10 12 11 17 17 17 13 11 13 15 15 15 14 14 20 17 15 18 23 25 23 13 24 15 8 6 8 7 8 8 3
25 25 26 28 28 29 29 32 32 28 15 9 4 5 11 11 8 17 18 14 3 5 6 13 11 11 14 14 15 13 16 22 24 21 20 19 10 9 8 8 8 7 8 8 6
26 26 27 28 30 28 29 31 27 16 5 10 6 3 6 6 12 20 13 9 6 1 6 6 8 10 12 14 15 17 24 22 25 24 25 24 16 8 10 12 10 8 9 9 8
27 28 28 29 29 28 17 9 6 1 3 8 13 16 23 27 22 21 16 3 6 5 6 5 5 16 17 20 23 19 20 22 15 19 16 23 15 14 10 9 14 10 9 10 9
29 28 30 29 29 29 8 4 6 1 14 17 17 23 25 18 19 17 16 11 7 9 8 10 14 21 18 20 23 25 24 21 16 18 19 12 16 9 13 12 14 15 12 11 9
28 29 29 30 30 13 4 10 9 6 4 13 11 14 10 11 10 16 12 13 10 12 14 13 11 14 25 21 22 26 23 19 16 16 16 11 7 17 19 16 8 19 16 11 17
29 30 28 29 7 7 5 6 8 7 2 5 9 6 9 13 8 4 10 11 5 10 19 12 17 18 21 24 21 23 21 21 16 13 14 17 13 14 19 15 14 10 18 15 12
30 30 29 18 7 5 8 5 8 5 5 5 15 13 23 10 17 3 4 4 10 14 11 9 9 13 18 21 22 20 19 17 19 13 1 15 10 16 13 12 15 14 15 17 12
33 31 25 9 5 13 14 8 2 3 5 10 20 23 24 15 10 2 1 8 6 8 14 19 15 14 9 15 21 18 19 18 15 9 7 18 10 7 15 24 14 8 13 17 13
35 35 19 5 5 7 9 4 4 2 18 17 27 26 12 19 17 14 15 4 4 5 8 10 20 19 14 7 17 21 14 8 11 8 7 11 8 8 15 14 12 11 11 12 13
37 34 6 8 9 9 4 3 2 15 13 19 22 22 10 18 16 19 11 6 7 7 4 4 5 18 22 24 6 18 13 3 5 9 12 11 8 14 10 15 12 14 12 10 12
32 5 5 4 13 1 5 4 4 11 16 19 19 10 12 19 12 14 13 2 8 4 3 5 6 13 17 9 10 6 12 18 6 5 5 6 4 2 15 12 15 18 17 10 9
9 4 5 8 7 3 5 5 8 12 16 15 8 6 14 18 13 14 8 2 6 9 5 4 7 12 18 15 15 8 6 11 4 5 6 5 8 5 5 5 16 19 11 13 20
2 5 4 9 4 5 3 4 11 16 15 11 14 11 14 9 7 7 6 7 1 8 12 3 4 3 18 7 10 4 2 5 3 4 6 7 5 6 5 13 19 20 23 22 21
6 4 5 6 6 4 4 6 8 13 12 9 7 6 5 8 7 5 8 9 1 9 9 5 3 5 13 14 18 6 8 9 7 7 4 4 2 10 16 17 23 23 25 24 23
7 4 6 6 4 5 7 12 10 13 15 8 6 10 3 10 10 7 8 8 5 10 4 6 1 4 7 7 4 5 8 11 8 3 4 3 3 7 11 16 15 26 23 22 24
4 5 6 5 7 8 10 11 16 12 9 14 11 11 13 12 11 10 12 8 17 6 9 5 4 3 2 3 4 3 6 5 3 1 5 3 7 4 6 10 10 14 20 20 21
5 4 4 7 8 17 11 15 20 14 9 7 4 8 20 13 16 4 19 21 11 5 4 6 4 5 10 15 8 6 6 5 6 11 5 9 14 7 5 5 11 12 16 22 23
5 4 3 13 15 14 9 13 19 21 12 11 14 21 18 16 11 26 22 20 5 2 1 2 3 7 6 3 8 3 7 10 12 24 16 16 12 5 6 9 11 17 22 23 21
3 4 4 8 8 11 8 16 20 18 8 16 18 20 19 14 23 25 22 23 15 6 2 1 2 2 1 2 4 7 6 8 2 13 14 15 10 13 8 15 16 19 21 23 22
Wind_Direction
349 347 344 341 337 333 329 325 322 321 320 318 318 318 319 320 314 308 268 229 212 243 262 264 283 279 238 233 253 240 231 237 238 232 244 265 260 280 266 199 42 38 104 129 136
347 343 341 337 333 329 326 322 320 319 317 316 316 317 321 325 311 287 247 244 273 271 256 238 251 248 224 212 236 207 219 234 235 242 257 272 274 262 260 114 79 90 110 115 132
342 340 337 332 328 326 323 320 317 316 315 314 315 317 319 322 292 238 98 155 211 284 242 228 250 263 251 207 211 247 234 241 238 251 264 273 282 283 189 209 167 148 140 135 138
339 335 332 328 325 323 319 314 311 308 307 311 310 310 310 312 283 50 314 294 312 302 225 216 233 244 262 232 214 247 247 245 251 238 249 257 276 292 261 196 160 173 148 147 148
335 331 328 325 321 316 315 311 309 304 306 303 303 298 304 250 245 276 276 280 279 236 258 228 220 224 239 242 248 234 238 245 249 259 263 285 284 276 294 193 157 176 168 161 153
331 328 325 322 317 314 310 310 306 301 302 298 295 287 245 261 259 273 302 323 309 277 260 218 251 233 277 237 244 270 229 239 247 245 253 255 275 287 266 314 241 129 127 181 154
328 326 322 319 317 316 313 308 304 297 298 293 280 251 256 248 241 302 299 281 277 286 288 289 218 235 215 245 247 248 263 244 230 240 246 234 260 252 244 213 303 183 151 87 147
329 325 322 320 319 318 315 311 306 295 294 282 255 226 253 248 240 257 253 255 241 250 253 285 288 282 263 269 282 251 246 245 238 229 236 191 239 240 209 183 256 227 162 136 151
329 325 322 320 320 320 316 311 301 293 273 237 199 202 263 290 212 242 231 249 269 284 257 260 286 284 277 260 259 255 230 232 239 230 219 215 218 209 191 199 230 204 167 151 173
328 325 322 320 321 319 318 307 289 296 224 160 240 208 242 254 292 308 301 242 217 334 287 303 282 271 261 242 230 226 216 230 224 223 210 225 228 184 228 191 203 198 169 164 195
329 325 321 321 321 318 325 330 352 25 348 281 263 240 281 272 284 276 270 299 276 193 255 229 255 239 246 232 243 244 246 236 250 220 230 215 212 196 228 204 198 185 179 177 193
329 324 322 324 321 315 297 263 71 14 306 297 266 252 254 264 271 277 272 282 291 240 256 260 224 252 242 257 236 245 244 235 227 223 224 205 205 199 209 232 196 192 185 181 199
328 323 325 324 319 309 273 292 96 65 287 306 287 290 349 310 309 269 315 274 244 266 249 236 246 248 247 247 259 238 238 243 230 206 230 206 217 201 209 219 211 197 189 176 190
328 323 326 334 322 330 269 32 96 94 338 271 341 355 293 299 303 11 6 305 208 242 257 222 240 239 251 240 244 249 238 244 248 216 214 203 218 219 202 206 215 202 190 183 181
325 324 326 325 287 281 277 338 108 67 311 33 359 343 331 352 311 28 285 193 257 256 280 268 213 248 237 237 237 267 242 236 251 264 218 200 194 206 168 208 212 208 180 181 180
325 323 330 312 190 242 283 336 68 325 312 336 347 338 338 340 18 310 179 28 5 260 262 263 261 252 271 272 234 244 269 243 246 246 259 255 170 207 185 206 202 181 173 170 170
323 319 319 272 247 325 302 36 15 35 336 340 336 332 337 351 347 352 322 226 215 244 217 265 233 229 217 256 254 229 232 228 215 215 214 266 262 197 205 198 189 169 158 158 158
326 313 260 211 235 246 340 19 309 348 337 334 333 318 354 358 333 344 316 341 269 220 303 264 265 193 200 219 188 225 224 216 137 156 209 219 232 204 209 187 186 158 156 149 156
324 313 276 245 231 49 45 13 348 1 344 332 330 332 338 336 345 345 326 284 349 204 282 302 258 184 184 150 145 218 213 197 310 177 127 194 279 187 178 180 173 159 154 149 149
317 287 268 301 321 127 53 305 347 355 339 339 316 322 317 333 341 342 298 1 340 355 306 288 299 187 176 175 185 221 179 191 190 184 156 160 203 208 155 216 163 147 126 112 91
262 324 318 337 37 29 80 309 317 347 349 338 315 305 318 322 308 305 284 297 19 311 328 252 266 224 155 156 204 163 179 247 21 263 158 149 222 126 80 141 122 110 104 100 100
321 330 339 9 43 343 351 336 309 355 349 324 295 310 304 303 283 292 297 312 124 12 323 303 321 298 177 155 195 193 215 184 178 261 291 137 281 330 102 91 101 106 102 104 102
308 267 14 22 34 348 318 309 336 356 340 353 309 316 316 310 304 247 278 304 325 319 297 340 286 324 346 110 105 172 233 184 178 349 170 96 269 4 51 80 87 109 111 110 110
298 344 350 329 358 340 316 346 351 355 335 336 305 305 310 310 292 284 288 300 316 326 244 185 291 258 205 142 145 112 310 158 175 11 52 357 104 63 67 93 100 99 109 108 107
16 13 47 314 318 310 307 2 345 343 360 354 299 324 329 307 311 270 313 311 330 130 323 185 259 248 265 285 127 160 251 327 292 210 128 158 139 154 128 123 118 126 107 103 104
13 350 332 292 281 316 17 345 349 337 346 334 323 322 314 301 294 309 307 301 280 181 126 303 290 346 258 313 336 182 204 230 256 199 120 119 112 112 111 85 109 107 105 104 101
349 303 290 279 323 332 339 336 340 333 314 323 323 317 317 313 304 288 280 273 256 236 251 232 275 222 343 150 290 213 256 201 350 68 120 143 134 114 100 112 104 106 102 102 99